TimeMST,TemperatureF,Dew PointF,Humidity,Sea Level PressureIn,VisibilityMPH,Wind Direction,Wind SpeedMPH,Gust SpeedMPH,PrecipitationIn,Events,Conditions,WindDirDegrees,DateUTC
12:53 AM,-0.0,-5.1,79,30.63,10.0,Calm,Calm,-,N/A,,Clear,0,2013-01-06 07:53:00
1:53 AM,1.0,-5.1,75,30.61,10.0,ESE,3.5,-,N/A,,Clear,110,2013-01-06 08:53:00
3:53 AM,-0.0,-5.1,79,30.57,10.0,Calm,Calm,-,N/A,,Clear,0,2013-01-06 10:53:00
4:53 AM,-0.0,-5.1,79,30.59,10.0,Calm,Calm,-,N/A,,Clear,0,2013-01-06 11:53:00
5:53 AM,-0.9,-5.1,83,30.62,10.0,South,3.5,-,N/A,,Clear,180,2013-01-06 12:53:00
6:53 AM,-2.0,-7.1,79,30.64,10.0,Calm,Calm,-,N/A,,Clear,0,2013-01-06 13:53:00
7:53 AM,-2.9,-8.0,79,30.65,10.0,Calm,Calm,-,N/A,,Clear,0,2013-01-06 14:53:00
8:53 AM,-0.9,-4.0,87,30.66,10.0,Calm,Calm,-,N/A,,Clear,0,2013-01-06 15:53:00
9:53 AM,5.0,-0.0,80,30.61,10.0,Calm,Calm,-,N/A,,Clear,0,2013-01-06 16:53:00
10:53 AM,9.0,3.0,77,30.56,10.0,Calm,Calm,-,N/A,,Clear,0,2013-01-06 17:53:00
11:53 AM,16.0,3.9,59,30.47,10.0,Calm,Calm,-,N/A,,Clear,0,2013-01-06 18:53:00
12:53 PM,19.0,7.0,59,30.43,10.0,West,3.5,-,N/A,,Clear,270,2013-01-06 19:53:00
1:53 PM,19.9,8.1,60,30.40,10.0,West,3.5,-,N/A,,Clear,280,2013-01-06 20:53:00
2:53 PM,21.0,6.1,53,30.40,10.0,SE,3.5,-,N/A,,Clear,140,2013-01-06 21:53:00
3:53 PM,21.9,6.1,51,30.39,10.0,Calm,Calm,-,N/A,,Clear,0,2013-01-06 22:53:00
4:53 PM,21.0,7.0,55,30.37,10.0,Calm,Calm,-,N/A,,Clear,0,2013-01-06 23:53:00
5:53 PM,18.0,9.0,68,30.38,10.0,East,5.8,-,N/A,,Clear,100,2013-01-07 00:53:00
6:53 PM,17.1,9.0,71,30.38,10.0,South,3.5,-,N/A,,Clear,170,2013-01-07 01:53:00
7:53 PM,16.0,6.1,65,30.39,10.0,Calm,Calm,-,N/A,,Clear,0,2013-01-07 02:53:00
8:53 PM,15.1,7.0,70,30.39,10.0,Calm,Calm,-,N/A,,Clear,0,2013-01-07 03:53:00
9:53 PM,12.9,5.0,71,30.36,10.0,Calm,Calm,-,N/A,,Clear,0,2013-01-07 04:53:00
10:53 PM,10.9,3.0,70,30.35,10.0,Calm,Calm,-,N/A,,Clear,0,2013-01-07 05:53:00
11:53 PM,10.0,1.9,70,30.33,10.0,Variable,3.5,-,N/A,,Clear,0,2013-01-07 06:53:00